| time (UTC) | temp C | wind direction | speed KPH | gust KPH | rain 1hr cm | rain 24hr cm | rain mn cm | humidity % | barometer mb |
| 20260905170050 | 24 | 201 | 0.0 | 6.4 | 0.00 | 0.00 | 0.00 | 71 | 1014.4 |
| 20260905164548 | 23 | 135 | 1.6 | 4.8 | 0.00 | 0.00 | 0.00 | 78 | 1014.4 |
| 20260905163051 | 22 | 329 | 0.0 | 4.8 | 0.00 | 0.00 | 0.00 | 83 | 1014.3 |
| 20260905161554 | 21 | 59 | 1.6 | 4.8 | 0.00 | 0.00 | 0.00 | 86 | 1014.2 |
| 20260905160055 | 20 | 0 | 0.0 | 4.8 | 0.00 | 0.00 | 0.00 | 87 | 1014.3 |
| 20260905154550 | 20 | 0 | 0.0 | 3.2 | 0.00 | 0.00 | 0.00 | 88 | 1014.1 |
| 20260905153045 | 19 | 0 | 0.0 | 4.8 | 0.00 | 0.00 | 0.00 | 89 | 1014.1 |
| 20260905151552 | 18 | 0 | 0.0 | 1.6 | 0.00 | 0.00 | 0.00 | 89 | 1014.1 |
| 20260905150048 | 17 | 0 | 0.0 | 3.2 | 0.00 | 0.00 | 0.00 | 89 | 1013.9 |
| 20260905144551 | 17 | 0 | 0.0 | 3.2 | 0.00 | 0.00 | 0.00 | 88 | 1013.9 |
| 20260905143047 | 16 | 0 | 0.0 | 3.2 | 0.00 | 0.00 | 0.00 | 89 | 1013.8 |
| 20260905141609 | 15 | 0 | 0.0 | 0.0 | 0.00 | 0.00 | 0.00 | 88 | 1013.6 |
| 20260905140058 | 15 | 0 | 0.0 | 0.0 | 0.00 | 0.00 | 0.00 | 88 | 1013.4 |
| 20260905134602 | 15 | 0 | 0.0 | 0.0 | 0.00 | 0.00 | 0.00 | 87 | 1013.2 |
| 20260905133054 | 15 | 0 | 0.0 | 0.0 | 0.00 | 0.00 | 0.00 | 88 | 1013.1 |
| 20260905131558 | 15 | 0 | 0.0 | 0.0 | 0.00 | 0.00 | 0.00 | 87 | 1013.0 |
| 20260905130052 | 16 | 0 | 0.0 | 0.0 | 0.00 | 0.00 | 0.00 | 87 | 1012.8 |
| 20260905124558 | 16 | 0 | 0.0 | 0.0 | 0.00 | 0.00 | 0.00 | 87 | 1012.7 |
| 20260905123058 | 16 | 0 | 0.0 | 0.0 | 0.00 | 0.00 | 0.00 | 87 | 1012.8 |
| 20260905121549 | 16 | 0 | 0.0 | 0.0 | 0.00 | 0.00 | 0.00 | 87 | 1012.9 |
| 20260905120059 | 16 | 0 | 0.0 | 0.0 | 0.00 | 0.00 | 0.00 | 87 | 1012.8 |
| 20260905114626 | 16 | 0 | 0.0 | 0.0 | 0.00 | 0.00 | 0.00 | 87 | 1012.8 |
| 20260905113050 | 16 | 0 | 0.0 | 0.0 | 0.00 | 0.00 | 0.00 | 86 | 1012.9 |
| 20260905111553 | 17 | 0 | 0.0 | 0.0 | 0.00 | 0.00 | 0.00 | 86 | 1013.0 |
| 20260905110044 | 17 | 0 | 0.0 | 0.0 | 0.00 | 0.00 | 0.00 | 86 | 1013.1 |
| 20260905104556 | 17 | 0 | 0.0 | 0.0 | 0.00 | 0.00 | 0.00 | 86 | 1013.1 |
| 20260905103052 | 17 | 0 | 0.0 | 0.0 | 0.00 | 0.00 | 0.00 | 86 | 1013.2 |
| 20260905101547 | 17 | 0 | 0.0 | 0.0 | 0.00 | 0.00 | 0.00 | 86 | 1013.2 |
| 20260905100114 | 17 | 0 | 0.0 | 0.0 | 0.00 | 0.00 | 0.00 | 86 | 1013.3 |
| 20260905094552 | 17 | 0 | 0.0 | 0.0 | 0.00 | 0.00 | 0.00 | 86 | 1013.3 |
| 20260905093054 | 17 | 0 | 0.0 | 0.0 | 0.00 | 0.00 | 0.00 | 85 | 1013.2 |
| 20260905091558 | 17 | 0 | 0.0 | 0.0 | 0.00 | 0.00 | 0.00 | 85 | 1013.3 |
| 20260905090044 | 17 | 0 | 0.0 | 0.0 | 0.00 | 0.00 | 0.00 | 85 | 1013.2 |
| 20260905084556 | 18 | 0 | 0.0 | 0.0 | 0.00 | 0.00 | 0.00 | 85 | 1013.2 |
| 20260905083050 | 18 | 0 | 0.0 | 0.0 | 0.00 | 0.00 | 0.00 | 84 | 1013.3 |
| 20260905081547 | 18 | 0 | 0.0 | 0.0 | 0.00 | 0.00 | 0.00 | 84 | 1013.4 |
| 20260905080046 | 18 | 0 | 0.0 | 0.0 | 0.00 | 0.00 | 0.00 | 84 | 1013.6 |
| 20260905074600 | 18 | 0 | 0.0 | 1.6 | 0.00 | 0.00 | 0.00 | 84 | 1013.5 |
| 20260905073102 | 18 | 0 | 0.0 | 0.0 | 0.00 | 0.00 | 0.00 | 83 | 1013.5 |
| 20260905071548 | 18 | 0 | 0.0 | 0.0 | 0.00 | 0.00 | 0.00 | 83 | 1013.5 |
| 20260905070047 | 19 | 0 | 0.0 | 0.0 | 0.00 | 0.00 | 0.00 | 83 | 1013.5 |
| 20260905064609 | 19 | 0 | 0.0 | 0.0 | 0.00 | 0.00 | 0.00 | 82 | 1013.4 |
| 20260905063053 | 20 | 0 | 0.0 | 0.0 | 0.00 | 0.00 | 0.00 | 82 | 1013.5 |
| 20260905061601 | 20 | 0 | 0.0 | 0.0 | 0.00 | 0.00 | 0.00 | 82 | 1013.4 |
| 20260905054602 | 20 | 0 | 0.0 | 0.0 | 0.00 | 0.00 | 0.00 | 81 | 1013.4 |
| 20260905053048 | 20 | 0 | 0.0 | 0.0 | 0.00 | 0.00 | 0.00 | 80 | 1013.2 |
| 20260905051605 | 20 | 0 | 0.0 | 1.6 | 0.00 | 0.00 | 0.00 | 80 | 1013.2 |
| 20260905050056 | 20 | 0 | 0.0 | 0.0 | 0.00 | 0.00 | 0.00 | 79 | 1013.3 |
| 20260905044559 | 20 | 0 | 0.0 | 3.2 | 0.00 | 0.00 | 0.00 | 79 | 1013.2 |
| 20260905043049 | 21 | 0 | 0.0 | 1.6 | 0.00 | 0.00 | 0.00 | 78 | 1013.1 |
| 20260905041549 | 21 | 0 | 0.0 | 1.6 | 0.00 | 0.00 | 0.00 | 78 | 1013.0 |
| 20260905040058 | 21 | 0 | 0.0 | 1.6 | 0.00 | 0.00 | 0.00 | 77 | 1012.9 |
| 20260905034605 | 21 | 0 | 0.0 | 4.8 | 0.00 | 0.00 | 0.00 | 76 | 1012.7 |
| 20260905033102 | 21 | 248 | 0.0 | 6.4 | 0.00 | 0.00 | 0.00 | 76 | 1012.5 |
| 20260905031546 | 21 | 293 | 0.0 | 4.8 | 0.00 | 0.00 | 0.00 | 75 | 1012.4 |
| 20260905030054 | 22 | 0 | 0.0 | 4.8 | 0.00 | 0.00 | 0.00 | 74 | 1012.2 |
| 20260905024554 | 22 | 296 | 0.0 | 6.4 | 0.00 | 0.00 | 0.00 | 72 | 1012.0 |
| 20260905023123 | 22 | 0 | 0.0 | 4.8 | 0.00 | 0.00 | 0.00 | 71 | 1012.0 |
| 20260905021546 | 23 | 0 | 0.0 | 4.8 | 0.00 | 0.00 | 0.00 | 70 | 1012.0 |
| 20260905020045 | 23 | 0 | 1.6 | 4.8 | 0.00 | 0.00 | 0.00 | 69 | 1011.9 |
| 20260905014556 | 23 | 159 | 1.6 | 8.0 | 0.00 | 0.00 | 0.00 | 68 | 1012.0 |
| 20260905013049 | 23 | 159 | 3.2 | 8.0 | 0.00 | 0.00 | 0.00 | 67 | 1012.1 |
| 20260905011556 | 23 | 211 | 4.8 | 9.7 | 0.00 | 0.00 | 0.00 | 66 | 1012.1 |
| 20260905010047 | 23 | 183 | 3.2 | 11.3 | 0.00 | 0.00 | 0.00 | 63 | 1012.2 |
| 20260905004556 | 24 | 194 | 4.8 | 11.3 | 0.00 | 0.00 | 0.00 | 62 | 1012.3 |
| 20260905003050 | 25 | 159 | 4.8 | 11.3 | 0.00 | 0.00 | 0.00 | 60 | 1012.3 |
| 20260905001549 | 25 | 236 | 4.8 | 16.1 | 0.00 | 0.00 | 0.00 | 57 | 1012.3 |
| 20260905000113 | 25 | 232 | 4.8 | 14.5 | 0.00 | 0.00 | 0.00 | 60 | 1012.3 |
| 20260904234557 | 25 | 205 | 4.8 | 14.5 | 0.00 | 0.00 | 0.00 | 60 | 1012.7 |
| 20260904233050 | 25 | 186 | 4.8 | 14.5 | 0.00 | 0.00 | 0.00 | 58 | 1012.5 |
| 20260904231548 | 26 | 138 | 4.8 | 12.9 | 0.00 | 0.00 | 0.00 | 58 | 1012.3 |
| 20260904230058 | 25 | 0 | 4.8 | 14.5 | 0.00 | 0.00 | 0.00 | 59 | 1012.5 |
| 20260904224603 | 26 | 152 | 8.0 | 17.7 | 0.00 | 0.00 | 0.00 | 58 | 1012.8 |
| 20260904223054 | 26 | 190 | 4.8 | 12.9 | 0.00 | 0.00 | 0.00 | 58 | 1012.7 |
| 20260904221547 | 26 | 176 | 4.8 | 14.5 | 0.00 | 0.00 | 0.00 | 59 | 1012.8 |
| 20260904220108 | 26 | 203 | 4.8 | 17.7 | 0.00 | 0.00 | 0.00 | 59 | 1012.8 |
| 20260904214553 | 26 | 257 | 4.8 | 14.5 | 0.00 | 0.00 | 0.00 | 59 | 1012.8 |
| 20260904213051 | 26 | 190 | 4.8 | 16.1 | 0.00 | 0.00 | 0.00 | 60 | 1012.8 |
| 20260904211554 | 26 | 206 | 4.8 | 14.5 | 0.00 | 0.00 | 0.00 | 60 | 1012.8 |
| 20260904210059 | 26 | 140 | 3.2 | 11.3 | 0.00 | 0.00 | 0.00 | 60 | 1012.9 |
| 20260904204558 | 26 | 188 | 4.8 | 14.5 | 0.00 | 0.00 | 0.00 | 61 | 1013.0 |
| 20260904203050 | 26 | 181 | 1.6 | 16.1 | 0.00 | 0.00 | 0.00 | 61 | 1013.1 |
| 20260904201548 | 26 | 173 | 8.0 | 16.1 | 0.00 | 0.00 | 0.00 | 60 | 1013.1 |
| 20260904200059 | 26 | 202 | 3.2 | 17.7 | 0.00 | 0.00 | 0.00 | 60 | 1013.2 |
| 20260904194601 | 26 | 181 | 4.8 | 16.1 | 0.00 | 0.00 | 0.00 | 61 | 1013.2 |
| 20260904193049 | 26 | 246 | 6.4 | 11.3 | 0.00 | 0.00 | 0.00 | 61 | 1013.5 |
| 20260904191550 | 25 | 238 | 1.6 | 14.5 | 0.00 | 0.00 | 0.00 | 62 | 1013.7 |
| 20260904190058 | 25 | 110 | 3.2 | 12.9 | 0.00 | 0.00 | 0.00 | 62 | 1014.0 |
| 20260904184602 | 25 | 221 | 3.2 | 16.1 | 0.00 | 0.00 | 0.00 | 62 | 1014.1 |
| 20260904183049 | 25 | 126 | 6.4 | 14.5 | 0.00 | 0.00 | 0.00 | 61 | 1014.0 |
| 20260904181606 | 25 | 234 | 3.2 | 12.9 | 0.00 | 0.00 | 0.00 | 63 | 1014.0 |
| 20260904180116 | 25 | 190 | 3.2 | 9.7 | 0.00 | 0.00 | 0.00 | 63 | 1014.0 |
| 20260904174610 | 24 | 207 | 4.8 | 11.3 | 0.00 | 0.00 | 0.00 | 64 | 1014.1 |
| 20260904173051 | 23 | 0 | 3.2 | 8.0 | 0.00 | 0.00 | 0.00 | 64 | 1014.0 |
| 20260904171545 | 25 | 215 | 4.8 | 11.3 | 0.00 | 0.00 | 0.00 | 64 | 1014.0 |